This is the latest recevied weather packets stored in our database for station/object KF6YUA. If no packets are shown the sender has not sent any weather packets the latest 10 day(s).
| Time | Temp. | Humidity | Pressure | Rain* | Wind** | Luminosity | Snow |
|---|---|---|---|---|---|---|---|
| 1777230995 | 14.44° C | 67% | 1014.8 hPa | 0 mm | - | 336 W/m² | - |
| 1777230692 | 15° C | 66% | 1014.6 hPa | 0 mm | - | 377 W/m² | - |
| 1777230387 | 14.44° C | 67% | 1014.6 hPa | 0 mm | - | 407 W/m² | - |
| 1777230083 | 15.56° C | 64% | 1014.5 hPa | 0 mm | - | 405 W/m² | - |
| 1777229781 | 15.56° C | 65% | 1014.7 hPa | 0 mm | - | 900 W/m² | - |
| 1777229477 | 14.44° C | 68% | 1014.8 hPa | 0 mm | - | 367 W/m² | - |
| 1777229174 | 14.44° C | 70% | 1014.8 hPa | 0 mm | - | 283 W/m² | - |
| 1777228871 | 13.89° C | 70% | 1014.8 hPa | 0 mm | - | 223 W/m² | - |
| 1777228567 | 13.89° C | 71% | 1014.8 hPa | 0 mm | - | 196 W/m² | - |
| 1777228264 | 14.44° C | 71% | 1015 hPa | 0 mm | - | 154 W/m² | - |
| 1777227963 | 13.89° C | 71% | 1014.8 hPa | 0 mm | - | 130 W/m² | - |
| 1777227658 | 15° C | 69% | 1014.6 hPa | 0 mm | - | 155 W/m² | - |
| 1777227354 | 16.11° C | 67% | 1014.6 hPa | 0 mm | - | 432 W/m² | - |
| 1777227051 | 15° C | 64% | 1014.5 hPa | 0 mm | - | 394 W/m² | - |
| 1777226751 | 15.56° C | 70% | 1014.4 hPa | 0 mm | - | 287 W/m² | - |
| 1777226446 | 13.89° C | 72% | 1014.4 hPa | 0 mm | - | 680 W/m² | - |
| 1777226142 | 13.89° C | 72% | 1014.5 hPa | 0 mm | - | 154 W/m² | - |
| 1777225839 | 13.89° C | 71% | 1014.4 hPa | 0 mm | - | 184 W/m² | - |
| 1777225534 | 13.89° C | 73% | 1014.4 hPa | 0 mm | - | 174 W/m² | - |
| 1777225232 | 13.89° C | 74% | 1014.1 hPa | 0 mm | - | 165 W/m² | - |
| 1777224928 | 13.89° C | 73% | 1014.1 hPa | 0 mm | - | 160 W/m² | - |
| 1777224626 | 13.33° C | 73% | 1014.2 hPa | 0 mm | - | 152 W/m² | - |
| 1777224320 | 13.89° C | 72% | 1014.2 hPa | 0 mm | - | 137 W/m² | - |
| 1777224016 | 13.33° C | 73% | 1014.1 hPa | 0 mm | - | 130 W/m² | - |
| 1777223715 | 13.89° C | 71% | 1014.2 hPa | 0 mm | - | 139 W/m² | - |
* Rain latest hour (hover to see other rain measurements)
** Current wind speed in m/s (hover to see current wind gust speed)